map of PTP home
PTP - Airport
Location
City:  Pointe--Pitre, Guadeloupe
Name:Le Raizet
ICAO:TFFR
IATA:PTP

Details
Type:Airport (Aerodrome, Airfield)
Use:Public/Civil
Latitude:1615'51"N (16.264167)
Longitude:6131'33"W (-61.525832)
Elevation:35 ft (11 m)
Variation:14.88W (WMM2015 magnetic declination)
-0.03 annual change
Runways:1
Longest:10253 × 148 ft (3125 × 45 m), paved

Time
Time Zone:UTC-4
Local Time:

Weather
METAR:TFFR 231400Z AUTO 11010KT 9999 FEW032 SCT039 BKN068 29/23 Q1013 TEMPO 4000 SHRA FEW015CB BKN018TCU
TAF:TFFR 230500Z 2306/2406 12006KT 9999 SCT033 PROB40
TEMPO 2306/2318 4000 SHRA BKN018TCU
TEMPO 2318/2406 3000 SHRA FEW015CB BKN018TCU PROB30 2402/2406 VRB15G25KT 1200 -TSRA SCT010CB BKN015TCU

Related Locations
Nearby:
Farthest:BME: 12171 mi / 19587 km
Broome [Intl], WA, AU

Find:

   beyond  
but within

Other Information
Maps:
NOTAMs:
Links:
Sources:

  
  • flag of Guadeloupe
  

Sectional Chart

Flight Planning
at skyvector.com

Satellite Image

Google Maps Satellite view

 

Copyright © 2004-2018 Karl L. Swartz. All rights reserved.
The Great Circle Mapper name and logo are trademarks of the Great Circle Mapper.
All other trademarks mentioned herein belong to their respective owners.
Please see credits for attibutions and further copyright information.

  Follow gcmap on Facebook Follow gcmap on Twitter Follow gcmap on Google+ GCmap on LinkedIn

hCard Microformat

Geo Microformat